Mason Valley Wildlife Refuge, Nevada Weather observations

Data are for 10 minute period ending at time listed.
 Day   Time   Solar   Ave.   Ave.  Ave.  Vector  Max.   Baro.   Total    
  of    of     Rad.   Air    Rel.  Wind   Wind   Wind  Press.  Precip.   
Year   Day            Temp.  Hum.  Speed  Dir.   Gust                    
2016   (PST)  Kw/m2    F      %     mph   deg.    mph    mb.     in.     
-------------------------------------------------------------------------
 125    0:50   0.00   54.6    50    1.7   293     3.6   867.4    0.00 
 125    1:00   0.00   56.3    47    1.7   313     2.9   867.3    0.00 
 125    1:10   0.00   54.2    50    2.2   307     3.9   867.2    0.00 
 125    1:20   0.00   53.0    53    2.4   298     3.1   867.2    0.00 
 125    1:30   0.00   51.6    56    1.9   306     3.0   867.1    0.00 
 125    1:40   0.00   51.3    57    3.1   270     4.5   867.0    0.00 
 125    1:50   0.00   50.0    60    2.8   205     4.9   866.9    0.00 
 125    2:00   0.00   49.0    64    1.4   178     2.5   866.9    0.00 
 125    2:10   0.00   48.7    65    2.8   184     4.5   866.9    0.00 
 125    2:20   0.00   48.8    61    3.5   172     4.0   866.9    0.00 
 125    2:30   0.00   50.4    58    3.6   202     4.5   866.9    0.00 
 125    2:40   0.00   49.9    59    2.3   172     3.1   866.9    0.00 
 125    2:50   0.00   49.3    60    1.9   189     2.9   866.8    0.00 
 125    3:00   0.00   47.2    64    3.0   158     3.7   866.8    0.00 
 125    3:10   0.00   45.3    70    1.8   187     2.6   866.7    0.00 
 125    3:20   0.00   44.7    69    1.4    88     3.1   866.6    0.00 
 125    3:30   0.00   44.6    68    1.9   156     3.3   866.6    0.00 
 125    3:40   0.00   44.6    71    2.7   178     3.2   866.7    0.00 
 125    3:50   100.00  99999.0   99999  99999.0   99999   99999.0   99999.0   99999.00 
 125    4:00   100.00  99999.0   99999  99999.0   99999   99999.0   99999.0   99999.00 
 125    4:10   100.00  99999.0   99999  99999.0   99999   99999.0   99999.0   99999.00 
 125    4:20   100.00  99999.0   99999  99999.0   99999   99999.0   99999.0   99999.00 
 125    4:30   100.00  99999.0   99999  99999.0   99999   99999.0   99999.0   99999.00 
 125    4:40   100.00  99999.0   99999  99999.0   99999   99999.0   99999.0   99999.00 
 125    4:50   100.00  99999.0   99999  99999.0   99999   99999.0   99999.0   99999.00 
 125    5:00   100.00  99999.0   99999  99999.0   99999   99999.0   99999.0   99999.00 
 125    5:10   100.00  99999.0   99999  99999.0   99999   99999.0   99999.0   99999.00 
 125    5:20   100.00  99999.0   99999  99999.0   99999   99999.0   99999.0   99999.00 
 125    5:30   100.00  99999.0   99999  99999.0   99999   99999.0   99999.0   99999.00 
 125    5:40   100.00  99999.0   99999  99999.0   99999   99999.0   99999.0   99999.00 
 125    5:50   100.00  99999.0   99999  99999.0   99999   99999.0   99999.0   99999.00 
 125    6:00   100.00  99999.0   99999  99999.0   99999   99999.0   99999.0   99999.00 
 125    6:10   100.00  99999.0   99999  99999.0   99999   99999.0   99999.0   99999.00 
 125    6:20   100.00  99999.0   99999  99999.0   99999   99999.0   99999.0   99999.00 
 125    6:30   100.00  99999.0   99999  99999.0   99999   99999.0   99999.0   99999.00 
 125    6:40   100.00  99999.0   99999  99999.0   99999   99999.0   99999.0   99999.00 
 125    6:50   100.00  99999.0   99999  99999.0   99999   99999.0   99999.0   99999.00 
 125    7:00   100.00  99999.0   99999  99999.0   99999   99999.0   99999.0   99999.00 
 125    7:10   100.00  99999.0   99999  99999.0   99999   99999.0   99999.0   99999.00 
 125    7:20   100.00  99999.0   99999  99999.0   99999   99999.0   99999.0   99999.00 
 125    7:30   100.00  99999.0   99999  99999.0   99999   99999.0   99999.0   99999.00 
 125    7:40   100.00  99999.0   99999  99999.0   99999   99999.0   99999.0   99999.00 
 125    7:50   100.00  99999.0   99999  99999.0   99999   99999.0   99999.0   99999.00 
 125    8:00   100.00  99999.0   99999  99999.0   99999   99999.0   99999.0   99999.00 
 125    8:10   100.00  99999.0   99999  99999.0   99999   99999.0   99999.0   99999.00 
 125    8:20   100.00  99999.0   99999  99999.0   99999   99999.0   99999.0   99999.00 
 125    8:30   100.00  99999.0   99999  99999.0   99999   99999.0   99999.0   99999.00 
 125    8:40   100.00  99999.0   99999  99999.0   99999   99999.0   99999.0   99999.00 
 125    8:50   100.00  99999.0   99999  99999.0   99999   99999.0   99999.0   99999.00 
 125    9:00   100.00  99999.0   99999  99999.0   99999   99999.0   99999.0   99999.00 
 125    9:10   100.00  99999.0   99999  99999.0   99999   99999.0   99999.0   99999.00 
 125    9:20   100.00  99999.0   99999  99999.0   99999   99999.0   99999.0   99999.00 
 125    9:30   100.00  99999.0   99999  99999.0   99999   99999.0   99999.0   99999.00 
 125    9:40   100.00  99999.0   99999  99999.0   99999   99999.0   99999.0   99999.00 
 125    9:50   100.00  99999.0   99999  99999.0   99999   99999.0   99999.0   99999.00 
 125   10:00   100.00  99999.0   99999  99999.0   99999   99999.0   99999.0   99999.00 
 125   10:10   100.00  99999.0   99999  99999.0   99999   99999.0   99999.0   99999.00 
 125   10:20   100.00  99999.0   99999  99999.0   99999   99999.0   99999.0   99999.00 
 125   10:30   100.00  99999.0   99999  99999.0   99999   99999.0   99999.0   99999.00 
 125   10:40   100.00  99999.0   99999  99999.0   99999   99999.0   99999.0   99999.00 
 125   10:50   100.00  99999.0   99999  99999.0   99999   99999.0   99999.0   99999.00 
 125   11:00   100.00  99999.0   99999  99999.0   99999   99999.0   99999.0   99999.00 
 125   11:10   100.00  99999.0   99999  99999.0   99999   99999.0   99999.0   99999.00 
 125   11:20   100.00  99999.0   99999  99999.0   99999   99999.0   99999.0   99999.00 
 125   11:30   100.00  99999.0   99999  99999.0   99999   99999.0   99999.0   99999.00 
 125   11:40   100.00  99999.0   99999  99999.0   99999   99999.0   99999.0   99999.00 
 125   11:50   100.00  99999.0   99999  99999.0   99999   99999.0   99999.0   99999.00 
 125   12:00   100.00  99999.0   99999  99999.0   99999   99999.0   99999.0   99999.00 
 125   12:10   100.00  99999.0   99999  99999.0   99999   99999.0   99999.0   99999.00 
 125   12:20   100.00  99999.0   99999  99999.0   99999   99999.0   99999.0   99999.00 
 125   12:30   100.00  99999.0   99999  99999.0   99999   99999.0   99999.0   99999.00 
 125   12:40   100.00  99999.0   99999  99999.0   99999   99999.0   99999.0   99999.00 
 125   12:50   100.00  99999.0   99999  99999.0   99999   99999.0   99999.0   99999.00 
 125   13:00   100.00  99999.0   99999  99999.0   99999   99999.0   99999.0   99999.00 
 125   13:10   100.00  99999.0   99999  99999.0   99999   99999.0   99999.0   99999.00 
 125   13:20   100.00  99999.0   99999  99999.0   99999   99999.0   99999.0   99999.00 
 125   13:30   100.00  99999.0   99999  99999.0   99999   99999.0   99999.0   99999.00 
 125   13:40   100.00  99999.0   99999  99999.0   99999   99999.0   99999.0   99999.00 
 125   13:50   100.00  99999.0   99999  99999.0   99999   99999.0   99999.0   99999.00 
 125   14:00   100.00  99999.0   99999  99999.0   99999   99999.0   99999.0   99999.00 
 125   14:10   100.00  99999.0   99999  99999.0   99999   99999.0   99999.0   99999.00 
 125   14:20   100.00  99999.0   99999  99999.0   99999   99999.0   99999.0   99999.00 
 125   14:30   100.00  99999.0   99999  99999.0   99999   99999.0   99999.0   99999.00 
 125   14:40   100.00  99999.0   99999  99999.0   99999   99999.0   99999.0   99999.00 
 125   14:50   0.11   65.5    32    4.5   349     8.0   863.7    0.00 
 125   15:00   0.14   65.6    33    4.9    24     9.8   863.5    0.00 
 125   15:10   0.20   67.2    26    4.8   110     9.4   863.2    0.00 
 125   15:20   0.24   68.3    26    4.6    80     6.9   862.6    0.00 
 125   15:30   0.21   68.8    27    4.0   146     7.1   862.8    0.00 
 125   15:40   100.00  99999.0   99999  99999.0   99999   99999.0   99999.0   99999.00 
 125   15:50   0.15   68.0    28    7.8   154    11.4   862.8    0.00 
 125   16:00   0.14   67.9    28    5.5   145     8.0   862.8    0.00 
 125   16:10   0.14   68.2    27    5.4   153     9.4   862.7    0.00 
 125   16:20   0.12   68.1    29    3.3   161     5.6   862.6    0.00 
 125   16:30   0.11   67.8    29    3.3   161     5.6   862.7    0.00 
 125   16:40   0.11   67.8    29    2.9   161     4.5   862.6    0.00 
 125   16:50   0.10   67.6    30    2.5   167     5.5   862.6    0.00 
 125   17:00   0.11   67.6    30    1.6   175     3.4   862.5    0.00 
 125   17:10   0.07   67.7    29    2.0   153     2.8   862.5    0.00 
 125   17:20   0.05   67.6    28    1.4   132     2.4   862.5    0.00 
 125   17:30   0.04   66.7    34    1.4   278     2.7   862.4    0.00 
 125   17:40   0.03   66.1    31    3.3   295     5.9   862.4    0.00 
 125   17:50   0.03   66.0    31    2.8   299     4.6   862.4    0.00 
 125   18:00   0.02   65.8    30    2.5   309     4.9   862.3    0.00 
 125   18:10   0.02   65.2    33    2.3   262     5.1   862.3    0.00 
 125   18:20   0.02   65.1    31    0.9   199     3.1   862.3    0.00 
 125   18:30   0.01   66.0    28    2.6   163     4.8   862.4    0.00 
 125   18:40   0.01   67.4    24    3.9   194    10.2   862.4    0.00 
 125   18:50   0.00   65.3    29    5.6   186    11.5   862.5    0.00 
 125   19:00   0.00   63.8    31    5.0   180     8.3   862.8    0.00 
 125   19:10   0.00   64.1    30    3.6   202     6.4   862.9    0.00 
 125   19:20   0.00   65.1    28    5.4   177    11.8   862.9    0.00 
 125   19:30   0.00   64.3    29    2.4   145     5.9   862.8    0.00 
 125   19:40   0.00   64.1    29    2.4   186     4.4   862.7    0.00 
 125   19:50   0.00   63.5    30    1.8   220     2.6   862.8    0.00 
 125   20:00   0.00   63.0    31    2.0   219     3.2   862.9    0.00 
 125   20:10   0.00   61.0    33    0.8   296     2.8   862.9    0.00 
 125   20:20   0.00   60.2    37    3.4   294     4.5   862.9    0.00 
 125   20:30   0.00   60.2    37    3.4   328     4.3   862.7    0.00 
 125   20:40   0.00   60.4    37    3.9   286     5.3   862.8    0.00 
 125   20:50   0.00   57.5    47    4.4   239     6.1   863.0    0.00 
 125   21:00   0.00   57.3    48    4.2   253     5.6   863.2    0.00 
 125   21:10   0.00   57.2    48    3.3   239     5.2   863.4    0.00 
 125   21:20   0.00   58.0    46    2.0   331     4.6   863.5    0.00 
 125   21:30   0.00   58.1    44    3.9    78     5.0   863.2    0.00 
 125   21:40   0.00   57.4    44    2.4   155     4.7   863.2    0.00 
 125   21:50   0.00   57.3    44    2.3   112     5.0   863.2    0.00 
 125   22:00   0.00   57.3    43    1.0   331     5.7   863.0    0.00 
 125   22:10   0.00   57.3    44    2.0   328     3.1   862.9    0.00 
 125   22:20   0.00   56.6    46    1.4   299     2.9   862.7    0.00 
 125   22:30   0.00   55.1    48    3.0   295     8.0   862.8    0.00 
 125   22:40   0.00   56.1    46    2.8   247     5.0   862.7    0.00 
 125   22:50   0.00   57.2    45    3.0   226     4.5   862.8    0.00 
 125   23:00   0.00   56.3    47    3.9   259     4.9   862.7    0.00 
 125   23:10   0.00   56.9    46    3.4   270     5.0   862.6    0.00 
 125   23:20   0.00   55.0    49    1.5    25     5.5   862.7    0.00 
 125   23:30   0.00   53.6    54    2.4   197     4.3   862.8    0.00 
 125   23:40   0.00   53.0    55    3.2   170     4.5   862.9    0.00 
 125   23:50   0.00   54.2    53    3.0   208     4.1   862.8    0.00 
 126    0:00   0.00   53.8    55    1.3   254     2.6   862.7    0.00 
 126    0:10   0.00   52.8    56    1.1   141     2.7   862.9    0.00 
 126    0:20   0.00   52.2    56    1.9    89     5.6   862.8    0.00 
 126    0:30   0.00   51.8    55    0.6    68     3.9   862.6    0.00 
 126    0:40   0.00   51.9    57    2.4   256     3.4   862.5    0.00 

Return to Mason Valley Wildlife Refuge graphs page.


Western Regional Climate Center,wrcc@dri.edu